TVARMINN Weather Reports


Display with metric or nautical units.
time (UTC)temp
F
wind
direction
speed
MPH
gust
MPH
rain 1hr
in
rain 24hr
in
rain mn
in
humidity
%
barometer
mb
20260508084732 54 0.0 0.0 0.00 0.00 0.00 33 1026.9
20260508082731 52 0.0 0.0 0.00 0.00 0.00 35 1026.9
20260508080733 53 0.0 0.0 0.00 0.00 0.00 35 1026.8
20260508074732 52 0.0 0.0 0.00 0.00 0.00 37 1026.6
20260508072732 52 0.0 0.0 0.00 0.00 0.00 42 1026.5
20260508070732 51 0.0 0.0 0.00 0.00 0.00 39 1026.3
20260508064731 51 0.0 0.0 0.00 0.00 0.00 43 1026.2
20260508062731 47 0.0 0.0 0.00 0.00 0.00 48 1026.1
20260508060732 48 0.0 0.0 0.00 0.00 0.00 49 1026.1
20260508054732 46 0.0 0.0 0.00 0.00 0.00 52 1025.9
20260508052732 44 0.0 0.0 0.00 0.00 0.00 53 1025.7
20260508050731 44 0.0 0.0 0.00 0.00 0.00 55 1025.5
20260508044732 43 0.0 0.0 0.00 0.00 0.00 58 1025.3
20260508042731 42 0.0 0.0 0.00 0.00 0.00 59 1025.1
20260508040731 41 0.0 0.0 0.00 0.00 0.00 61 1024.8
20260508032731 39 0.0 0.0 0.00 0.00 0.00 64 1024.4
20260508030732 39 0.0 0.0 0.00 0.00 0.00 65 1024.3
20260508024730 39 0.0 0.0 0.00 0.00 0.00 67 1024.0
20260508022730 39 0.0 0.0 0.00 0.00 0.00 64 1023.6
20260508020731 40 0.0 0.0 0.00 0.00 0.00 63 1023.4
20260508014731 40 0.0 0.0 0.00 0.00 0.00 63 1023.2
20260508012731 40 0.0 0.0 0.00 0.00 0.00 64 1022.9
20260508010731 40 0.0 0.0 0.00 0.00 0.00 61 1022.7
20260508004731 41 0.0 0.0 0.00 0.00 0.00 59 1022.5
20260508002731 40 0.0 0.0 0.00 0.00 0.00 62 1022.3
20260508000732 41 0.0 0.0 0.00 0.00 0.00 60 1021.9
20260507234731 42 0.0 0.0 0.00 0.00 0.00 56 1021.8
20260507232730 42 0.0 0.0 0.00 0.00 0.00 54 1021.5
20260507230731 43 0.0 0.0 0.00 0.00 0.00 51 1021.3
20260507224729 43 0.0 0.0 0.00 0.00 0.00 49 1021.1
20260507222731 44 0.0 0.0 0.00 0.00 0.00 46 1020.9
20260507220730 44 0.0 0.0 0.00 0.00 0.00 47 1020.7
20260507214731 42 0.0 0.0 0.00 0.00 0.00 56 1020.5
20260507212729 43 0.0 0.0 0.00 0.00 0.00 52 1020.2
20260507210730 44 0.0 0.0 0.00 0.00 0.00 47 1020.0
20260507204731 45 0.0 0.0 0.00 0.00 0.00 46 1019.6
20260507202730 47 0.0 0.0 0.00 0.00 0.00 41 1019.4
20260507200731 47 0.0 0.0 0.00 0.00 0.00 38 1019.1
20260507194729 47 0.0 0.0 0.00 0.00 0.00 39 1018.8
20260507192729 48 0.0 0.0 0.00 0.00 0.00 37 1018.4
20260507190729 49 0.0 0.0 0.00 0.00 0.00 36 1018.0
20260507184730 50 0.0 0.0 0.00 0.00 0.00 32 1017.9
20260507182728 51 0.0 0.0 0.00 0.00 0.00 31 1017.6
20260507180728 51 0.0 0.0 0.00 0.00 0.00 32 1017.3
20260507174729 51 0.0 0.0 0.00 0.00 0.00 33 1017.2
20260507172728 53 0.0 0.0 0.00 0.00 0.00 31 1017.0
20260507170728 52 0.0 0.0 0.00 0.00 0.00 35 1016.9
20260507164729 50 0.0 0.0 0.00 0.00 0.00 50 1016.9
20260507162729 50 0.0 0.0 0.00 0.00 0.00 50 1016.9
20260507160729 50 0.0 0.0 0.00 0.00 0.00 44 1016.9
20260507154728 52 0.0 0.0 0.00 0.00 0.00 39 1016.8
20260507152728 53 0.0 0.0 0.00 0.00 0.00 32 1016.8
20260507150730 53 0.0 0.0 0.00 0.00 0.00 37 1016.8
20260507144730 53 0.0 0.0 0.00 0.00 0.00 39 1016.7
20260507142730 53 0.0 0.0 0.00 0.00 0.00 40 1016.7
20260507140729 53 0.0 0.0 0.00 0.00 0.00 38 1016.6
20260507134729 53 0.0 0.0 0.00 0.00 0.00 46 1016.5
20260507132728 51 0.0 0.0 0.00 0.00 0.00 48 1016.5
20260507130729 52 0.0 0.0 0.00 0.00 0.00 50 1016.5
20260507124728 51 0.0 0.0 0.00 0.00 0.00 56 1016.5
20260507122727 50 0.0 0.0 0.00 0.00 0.00 53 1016.5
20260507120729 49 0.0 0.0 0.00 0.00 0.00 52 1016.5
20260507114729 49 0.0 0.0 0.00 0.00 0.00 51 1016.4
20260507112727 49 0.0 0.0 0.00 0.00 0.00 53 1016.4
20260507110727 49 0.0 0.0 0.00 0.00 0.00 57 1016.4
20260507104727 48 0.0 0.0 0.00 0.00 0.00 64 1016.3
20260507102727 47 0.0 0.0 0.00 0.00 0.00 64 1016.2
20260507100727 47 0.0 0.0 0.00 0.00 0.00 62 1016.1
20260507094728 46 0.0 0.0 0.00 0.00 0.00 58 1015.9
20260507092727 47 0.0 0.0 0.00 0.00 0.00 60 1015.9
20260507090728 46 0.0 0.0 0.00 0.00 0.00 60 1016.0